Location: Unspecified
(0.0000°N, 0.0000°E)
Time: 08:14:57
(UTC+00:00)

CZ-4C DEB - Pass Details

Date: 17 March 2026
Orbit: 805 x 1381 km, 63.4° (Epoch: 18 April)

Event Time Altitude Azimuth Distance (km) Brightness Sun altitude
Rises 18:17:56 0° 350° (N) 4,202 ? -2.4°
Reaches altitude 10° 18:20:47 10° 356° (N) 3,298 ? -3.1°
Maximum altitude 18:28:34 47° 68° (ENE) 1,743 ? -5.1°
Drops below altitude 10° 18:36:39 10° 139° (SE) 3,446 ? -7.1°
Sets 18:39:40 0° 144° (SE) 4,404 ? -7.8°
